This demonstration page uses our WeatherBlox Daily Observations layout. Learn more.

Left ArrowRight Arrow

Hourly Observations for March 28, 2021

Temp ( °F °C ) Dew Point ( °F °C ) Humidity (%) Winds ( mph kmh ) Pressure ( in mb ) Visibility ( mi km ) Precip ( " mm )
12:53 am 00:53 Clear 43 6.1 28 -2.2 56 56 SW 17 28 29.91 1013 10 16.0934 0 0
1:53 am 01:53 Clear 44 6.7 27 -2.8 51 51 SW 18 30 29.85 1011 10 16.0934 0 0
2:53 am 02:53 Clear 42 5.6 28 -2.2 58 58 SW 14 22 29.83 1010 10 16.0934 0 0
3:53 am 03:53 Clear 45 7.2 28 -2.2 52 52 SW 17 28 29.79 1009 10 16.0934 0 0
4:53 am 04:53 Clear 46 7.8 28 -2.2 50 50 SW 17 28 29.76 1008 10 16.0934 0 0
5:53 am 05:53 Clear 47 8.3 27 -2.8 46 46 WSW 20 31 29.75 1007 10 16.0934 0 0
6:53 am 06:53 Clear 48 8.9 27 -2.8 44 44 SW 26 43 29.75 1008 10 16.0934 0 0
7:53 am 07:53 Sunny 49 9.4 27 -2.8 43 43 WSW 29 46 29.75 1008 10 16.0934 0 0
8:53 am 08:53 Sunny 50 10 28 -2.2 43 43 WSW 23 37 29.75 1008 10 16.0934 0 0
9:53 am 09:53 Sunny 55 12.8 26 -3.3 33 33 SW 22 35 29.73 1007 10 16.0934 0 0
10:53 am 10:53 Sunny 61 16.1 25 -3.9 25 25 WSW 28 44 29.7 1006 10 16.0934 0 0
11:53 am 11:53 Sunny 64 17.8 24 -4.4 22 22 WSW 31 50 29.66 1005 10 16.0934 0 0
12:53 pm 12:53 Sunny 67 19.4 23 -5 19 19 SW 28 44 29.62 1003 10 16.0934 0 0
1:53 pm 13:53 Sunny 67 19.4 21 -6.1 17 17 SW 23 37 29.57 1001 10 16.0934 0 0
2:53 pm 14:53 Sunny 68 20 20 -6.7 16 16 WSW 17 28 29.54 1000 10 16.0934 0 0
3:53 pm 15:53 Sunny 67 19.4 17 -8.3 15 15 WSW 26 43 29.49 999 10 16.0934 0 0
4:53 pm 16:53 Sunny 65 18.3 17 -8.3 16 16 WSW 24 39 29.47 998 10 16.0934 0 0
5:53 pm 17:53 Sunny 63 17.2 17 -8.3 17 17 W 20 31 29.46 998 10 16.0934 0 0
6:53 pm 18:53 Sunny 61 16.1 19 -7.2 20 20 WSW 14 22 29.43 997 10 16.0934 0 0
7:53 pm 19:53 Clear 57 13.9 19 -7.2 23 23 SW 17 28 29.41 996 10 16.0934 0 0
8:53 pm 20:53 Clear 58 14.4 17 -8.3 20 20 WSW 18 30 29.38 995 10 16.0934 0 0
9:53 pm 21:53 Clear 47 8.3 18 -7.8 31 31 SW 8 13 29.33 993 10 16.0934 0 0
10:53 pm 22:53 Clear 42 5.6 20 -6.7 41 41 S 12 19 29.27 991 10 16.0934 0 0
11:53 pm 23:53 Partly Cloudy 41 5 21 -6.1 45 45 WNW 9 15 29.25 991 10 16.0934 0 0

Powered by AerisWeather